Location: Basin
(44.3800°N, 108.0380°W)
Time: 19:42:12
(UTC-06:00)

Tiangong 2 - Visible Passes

Search period start: 18 March 2019 00:00
Search period end: 28 March 2019 00:00
Orbit: 379 x 390 km, 42.8° (Epoch: 18 March)

Date Brightness Start Highest point End Pass type
(mag) Time Alt. Az. Time Alt. Az. Time Alt. Az.
18 Mar 1.2 05:33:54 63° SSE 05:33:54 63° SSE 05:36:52 10° E visible
19 Mar 4.4 04:37:11 12° E 04:37:11 12° E 04:37:26 10° E visible
19 Mar 1.5 06:09:24 25° WSW 06:10:53 46° SSW 06:13:58 10° ESE visible
20 Mar 2.6 05:12:44 31° ESE 05:12:44 31° ESE 05:14:37 10° ESE visible
20 Mar 2.6 06:45:19 10° W 06:47:55 23° SSW 06:50:31 10° SSE visible
21 Mar 1.9 05:48:23 33° SSW 05:48:36 33° SSW 05:51:30 10° SE visible
22 Mar 4.0 04:51:53 13° ESE 04:51:53 13° ESE 04:52:16 10° ESE visible
22 Mar 3.1 06:24:08 12° WSW 06:25:29 15° SSW 06:27:25 10° S visible
23 Mar 3.3 05:27:46 16° SSE 05:27:46 16° SSE 05:28:47 10° SSE visible
